GW1419 Weather Reports


time (UTC)temp
C
wind
direction
speed
KPH
gust
KPH
rain 1hr
cm
rain 24hr
cm
rain mn
cm
humidity
%
barometer
mb
20260504221538 26 157 16.1 29.0 0.00 0.00 0.00 47 1007.1
20260504220037 27 221 14.5 25.7 0.00 0.00 0.00 46 1007.2
20260504214534 27 227 9.7 27.4 0.00 0.00 0.00 46 1007.2
20260504213053 27 228 6.4 29.0 0.00 0.00 0.00 47 1007.2
20260504211530 27 261 6.4 25.7 0.00 0.00 0.00 46 1007.2
20260504210027 27 217 9.7 38.6 0.00 0.00 0.00 46 1007.7
20260504204526 27 281 11.3 41.8 0.00 0.00 0.00 47 1007.8
20260504203023 27 267 8.0 27.4 0.00 0.00 0.00 46 1008.0
20260504201526 27 225 12.9 32.2 0.00 0.00 0.00 45 1008.2
20260504200020 27 206 11.3 30.6 0.00 0.00 0.00 46 1008.3
20260504194519 27 192 14.5 33.8 0.00 0.00 0.00 45 1008.4
20260504193014 27 230 14.5 33.8 0.00 0.00 0.00 45 1008.5
20260504191513 27 163 6.4 29.0 0.00 0.00 0.00 46 1008.5
20260504190010 26 175 12.9 32.2 0.00 0.00 0.00 46 1008.6
20260504184512 27 241 16.1 37.0 0.00 0.00 0.00 46 1008.9
20260504183006 26 271 9.7 30.6 0.00 0.00 0.00 45 1009.1
20260504181503 26 225 9.7 24.1 0.00 0.00 0.00 46 1009.3
20260504180001 26 173 11.3 32.2 0.00 0.00 0.00 46 1009.3
20260504174612 26 159 9.7 27.4 0.00 0.00 0.00 47 1009.5
20260504173058 26 234 8.0 24.1 0.00 0.00 0.00 49 1009.6
20260504171555 26 188 11.3 32.2 0.00 0.00 0.00 49 1009.6
20260504090108 17 175 6.4 19.3 0.00 0.00 0.00 73 1010.7
20260504081538 18 180 4.8 16.1 0.00 0.00 0.00 69 1010.7
20260504050009 19 184 8.0 16.1 0.00 0.00 0.00 63 1012.7
20260504044521 19 175 8.0 17.7 0.00 0.00 0.00 62 1012.8
20260504043007 19 171 11.3 16.1 0.00 0.00 0.00 61 1013.0
20260504041506 19 176 8.0 14.5 0.00 0.00 0.00 61 1013.0
20260504040006 20 167 8.0 19.3 0.00 0.00 0.00 61 1013.0
20260504034506 20 170 9.7 19.3 0.00 0.00 0.00 60 1013.0
20260504033008 20 169 11.3 16.1 0.00 0.00 0.00 61 1013.1
20260504031504 20 190 8.0 12.9 0.00 0.00 0.00 62 1013.1
20260504030005 20 169 6.4 14.5 0.00 0.00 0.00 62 1013.2
20260504024505 19 157 8.0 16.1 0.00 0.00 0.00 62 1013.2
20260504023002 19 170 9.7 14.5 0.00 0.00 0.00 63 1013.2
20260504021501 19 164 9.7 16.1 0.00 0.00 0.00 63 1013.1
20260504020003 19 178 9.7 14.5 0.00 0.00 0.00 63 1012.9
20260504014501 19 165 11.3 17.7 0.00 0.00 0.00 62 1012.8
20260504013100 20 188 8.0 14.5 0.00 0.00 0.00 62 1012.8
20260504011600 20 155 8.0 16.1 0.00 0.00 0.00 62 1012.8
20260504010105 20 164 6.4 14.5 0.00 0.00 0.00 61 1012.6
20260504004557 20 167 8.0 16.1 0.00 0.00 0.00 60 1012.7
20260504003056 20 168 9.7 14.5 0.00 0.00 0.00 58 1012.8
20260504001611 21 162 6.4 16.1 0.00 0.00 0.00 56 1013.0
20260504000054 22 167 6.4 14.5 0.00 0.00 0.00 55 1013.1
20260503234553 22 160 8.0 17.7 0.00 0.00 0.00 53 1013.2
20260503233051 22 183 12.9 22.5 0.00 0.00 0.00 50 1013.3
20260503231549 23 167 6.4 14.5 0.00 0.00 0.00 50 1013.4
20260503230052 23 205 6.4 17.7 0.00 0.00 0.00 47 1013.7
20260503224546 24 217 1.6 14.5 0.00 0.00 0.00 47 1014.1
20260503223045 23 165 4.8 17.7 0.00 0.00 0.00 46 1014.0